NOAA 16 DEB

Satellite information

Favourite Embed

Satellite Type and Status

DEBRISIN ORBIT

Key statistics

Satellite NOAA 16 DEB at a glance.

Uptime

9109

Days in orbit

Revolutions

≈ 14.2

Per day

Orbit

SSO

Sun Synchronous Orbit

Inclination

98.7

Latest

Satellite identification and parameters

Extended collection of information and parameters for NOAA 16 DEB.

Object identification

Identified? True

Debris? True

Object name: NOAA 16 DEB

International designator: 2000-055CV

Object number (NORAD): 41162

Object ID (CCSDS): 41162

Country: UNITED STATES OF AMERICA (US)

Current information (Y/N): Y

RCS size: SMALL

Orbital parameters

Period: 101.07 minutes

Inclination: 98.7325 deg

SMA: 7187.463 km

Apoapsis: 828.857 km

Periapsis: 789.8 km

RAAN: 300.8674 deg

Eccentricy: 0.00271698

Argument of periapsis: 324.1283 deg

Mean anomaly: 35.8071 deg

Mean motion: 14.24752028 rev/day

Mean motion (dot): 0.00004341 rev/day2

B* drag term: 0.0018747056 1/REarth

Two-line elements (TLE)

Creation date: Aug. 28, 2025, 11:13 p.m.

Reference frame: TEME

Reference center: EARTH

Epoch: Aug. 28, 2025, 9:41 a.m. UTC

TLE line 0: 0 NOAA 16 DEB

TLE line 1: 1 41162U 00055CV 25240.40386478 .00004341 00000-0 18747-2 0 9998

TLE line 2: 2 41162 98.7325 300.8674 0027170 324.1283 35.8071 14.24752028501946

Live tracking on map

Real-time ground track for satellite NOAA 16 DEB.

In-orbit conjunctions

A list of the most updated potential collisions computed for object NOAA 16 DEB.

Target Orbit TCA Probability of collision Miss distance Type
COSMOS 2251 LEO 2025-07-30 08:11:44 0.0002688987 367.0 (m) PAYLOAD
HILAT LEO 2025-05-19 20:42:01 0.0003663037 356.0 (m) PAYLOAD
SL-3 DEB LEO 2024-11-14 03:06:50 0.0003754759 433.0 (m) DEBRIS
SL-3 DEB LEO 2024-11-14 01:25:15 0.0004778669 222.0 (m) DEBRIS

Associated space launch

The NOAA K, L and M POES satellites begin the fifth generation of improved environmental monitoring in support of NOAA missions. The instrument payload has significant improvements and additions/deletions. The instrument changes have effected the spacecraft subsystems and data formats.

NOAA 16 DEB was lifted into orbit during the mission ‘Titan II SLV | NOAA 16’, on board a Titan II SLV space rocket.

The launch took place on Sept. 21, 2000, 10:22 a.m. from Space Launch Complex 4W.

For more information about the launch, click the button.

Launch to space Titan II SLV | NOAA 16
Titan II SLV | NOAA 16

Agency: N/A

Status: Launch Successful

Launch date: Sept. 21, 2000, 10:22 a.m. UTC

Rocket: Titan II SLV

Launch pad: Space Launch Complex 4W

Location: Vandenberg SFB, CA, USA

...

Latest news about this satellite

There are no fresh news available about this satellite. Check back as we update our databases every day.


Newsletter sign-up

Weekly statistics, charts and insights to help you stay on top of the space industry.